Regional Weather Roundup
Issued by NWS

Home | Current Version | Previous Version | Graphics & Text | Print | Product List | Glossary On
Versions: 1 2 3 4 5 6 7 8 9 10 11 12 13 14 15 16 17 18 19 20 21 22 23 24 25 26 27 28 29 30 31 32 33 34 35 36 37 38 39 40 41 42 43 44 45 46 47 48 49 50
000
ASUS43 KFSD 172002
RWRSD

WEATHER ROUNDUP FOR SOUTH DAKOTA
NATIONAL WEATHER SERVICE SIOUX FALLS SD
300 PM CDT FRI APR 17 2015

NOTE: "FAIR" INDICATES FEW OR NO CLOUDS BELOW 12,000 FEET WITH NO
SIGNIFICANT WEATHER AND/OR OBSTRUCTIONS TO VISIBILITY.


SDZ001>005-009-010-012>017-172100-
NORTHWEST AND NORTH CENTRAL SOUTH DAKOTA

CITY           SKY/WX    TMP DP  RH WIND       PRES   REMARKS
FAITH            N/A     65  20  17 VRB3      30.14F
MOBRIDGE       SUNNY     69  22  16 VRB5      30.11F
$$

SDZ012>016-024>037-041>051-057-063-072>074-172100-
SOUTHWEST AND SOUTH CENTRAL SOUTH DAKOTA

CITY           SKY/WX    TMP DP  RH WIND       PRES   REMARKS
RAPID CTY ARPT CLOUDY    59  28  30 NE10      30.15F
PIERRE         CLOUDY    70  31  23 NE6       30.10F
CUSTER         CLOUDY    45  29  53 NE12      30.17F
PHILIP         CLOUDY    67  32  27 NE10      30.12F
PINE RIDGE     LGT RAIN  49  43  80 NE9       30.15S
WINNER         FAIR      68  40  35 E9        30.10F
$$

SDZ004>011-016>023-039-040-172100-
NORTHEAST SOUTH DAKOTA

CITY           SKY/WX    TMP DP  RH WIND       PRES   REMARKS
ABERDEEN       SUNNY     73  19  13 VRB3      30.11F
WATERTOWN      SUNNY     69  19  15 VRB3      30.10F
BROOKINGS      SUNNY     72  28  20 NW10      30.08F
SISSETON         N/A     71  16  12 VRB6      30.08F
$$

SDZ017-020-022-023-036>040-048>070-172100-
SOUTHEAST SOUTH DAKOTA

CITY           SKY/WX    TMP DP  RH WIND       PRES   REMARKS
SIOUX FALLS    PTSUNNY   75  42  30 CALM      30.06F
HURON          MOSUNNY   74  29  19 N12G22    30.08F
MITCHELL       SUNNY     74  39  28 N10G17    30.08F
YANKTON        CLOUDY    70  48  46 SW6       30.06F
$$

ABBREVIATIONS USED IN REMARKS
   TC - TEMPERATURE IN CELSIUS
  WCI - WIND CHILL INDEX
   HX - HEAT INDEX
  VSB - VISIBILITY



USA.gov is the U.S. government's official web portal to all federal, state and local government web resources and services.